Total_Precipitation_Accumulation
1.51 1.48 1.39 1.28 1.28 1.30 1.37 1.53 1.73 1.62 1.27 1.01 1.02 1.07 1.13 1.24 1.48 1.39 1.30 1.57 1.57 1.54 1.59 1.62 1.58 1.56 1.60 1.68 1.77 1.88 1.95 1.93 1.90 1.86 1.84 1.80 1.80 1.91
1.30 1.33 1.34 1.28 1.28 1.29 1.36 1.45 1.60 1.71 1.55 1.14 1.01 1.07 1.20 1.28 1.50 1.38 1.33 1.54 1.48 1.47 1.45 1.42 1.36 1.32 1.35 1.40 1.41 1.42 1.45 1.54 1.63 1.68 1.74 1.81 1.85 1.91
1.18 1.21 1.21 1.16 1.20 1.22 1.26 1.35 1.46 1.61 1.66 1.36 1.16 1.15 1.24 1.27 1.28 1.18 1.14 1.16 1.16 1.28 1.22 1.19 1.18 1.15 1.13 1.17 1.23 1.24 1.20 1.22 1.33 1.42 1.48 1.55 1.61 1.64
1.11 1.13 1.14 1.14 1.18 1.20 1.26 1.33 1.39 1.45 1.51 1.41 1.20 1.09 1.05 1.02 1.00 0.96 0.92 0.88 0.86 1.04 1.02 0.97 0.96 0.95 0.91 0.91 1.00 1.07 1.06 1.02 1.02 1.06 1.11 1.17 1.24 1.33
1.15 1.14 1.12 1.16 1.19 1.21 1.25 1.31 1.31 1.28 1.26 1.22 1.07 0.92 0.85 0.82 0.85 0.83 0.80 0.80 0.73 0.83 0.89 0.86 0.84 0.81 0.78 0.77 0.81 0.87 0.91 0.91 0.88 0.85 0.89 0.95 1.03 1.13
1.18 1.18 1.17 1.21 1.28 1.31 1.31 1.29 1.24 1.21 1.14 1.10 1.02 0.91 0.81 0.73 0.76 0.79 0.78 0.76 0.72 0.64 0.74 0.77 0.79 0.80 0.75 0.68 0.64 0.65 0.72 0.83 0.87 0.85 0.83 0.83 0.88 0.97
1.12 1.19 1.22 1.30 1.33 1.25 1.13 1.05 0.99 0.99 0.98 0.98 0.91 0.82 0.74 0.68 0.67 0.63 0.64 0.67 0.70 0.64 0.63 0.64 0.64 0.65 0.66 0.68 0.64 0.61 0.64 0.74 0.84 0.88 0.88 0.86 0.85 0.92
0.96 1.03 1.10 1.15 1.07 1.02 0.95 0.88 0.89 0.93 0.92 0.83 0.74 0.64 0.54 0.49 0.50 0.56 0.64 0.74 0.77 0.63 0.61 0.61 0.59 0.64 0.60 0.60 0.68 0.67 0.65 0.70 0.79 0.85 0.90 0.90 0.88 0.89
0.83 0.84 0.82 0.79 0.79 0.67 0.69 0.70 0.71 0.74 0.71 0.64 0.61 0.51 0.44 0.42 0.53 0.63 0.64 0.66 0.59 0.49 0.59 0.69 0.63 0.61 0.55 0.57 0.68 0.67 0.67 0.71 0.78 0.85 0.88 0.90 0.92 0.94
0.64 0.62 0.61 0.58 0.57 0.57 0.57 0.57 0.51 0.47 0.46 0.42 0.39 0.37 0.38 0.44 0.55 0.67 0.69 0.70 0.62 0.54 0.58 0.72 0.64 0.58 0.52 0.52 0.60 0.62 0.67 0.72 0.77 0.84 0.91 0.92 0.90 0.92
0.46 0.45 0.47 0.46 0.51 0.59 0.56 0.53 0.49 0.45 0.46 0.48 0.48 0.47 0.50 0.54 0.58 0.66 0.79 0.92 0.85 0.62 0.52 0.57 0.54 0.51 0.53 0.54 0.58 0.65 0.66 0.68 0.71 0.77 0.85 0.92 0.93 0.95
0.37 0.38 0.44 0.46 0.55 0.63 0.59 0.56 0.54 0.48 0.48 0.50 0.49 0.47 0.45 0.46 0.53 0.52 0.60 0.88 0.90 0.71 0.44 0.48 0.52 0.62 0.77 0.58 0.56 0.64 0.67 0.70 0.72 0.73 0.78 0.87 0.96 0.98
0.37 0.37 0.39 0.49 0.56 0.63 0.67 0.61 0.59 0.58 0.55 0.55 0.55 0.52 0.50 0.50 0.49 0.45 0.47 0.69 0.92 0.75 0.41 0.61 0.79 0.73 0.92 0.69 0.52 0.57 0.63 0.65 0.70 0.75 0.78 0.84 0.95 1.04
0.37 0.33 0.35 0.48 0.56 0.60 0.60 0.62 0.68 0.69 0.60 0.59 0.60 0.57 0.53 0.51 0.48 0.46 0.46 0.50 0.57 0.58 0.45 0.69 1.06 0.91 1.08 0.93 0.59 0.51 0.57 0.60 0.63 0.69 0.76 0.86 0.92 1.02
0.38 0.42 0.47 0.53 0.54 0.52 0.54 0.59 0.62 0.60 0.59 0.60 0.56 0.48 0.43 0.43 0.47 0.52 0.55 0.55 0.55 0.52 0.50 0.55 0.76 0.89 1.16 1.17 0.79 0.54 0.55 0.60 0.62 0.69 0.79 0.88 0.91 1.00
0.43 0.45 0.49 0.53 0.55 0.54 0.54 0.54 0.53 0.54 0.57 0.57 0.50 0.46 0.46 0.49 0.53 0.55 0.61 0.64 0.69 0.60 0.51 0.49 0.56 0.84 1.09 0.89 0.85 0.72 0.58 0.65 0.63 0.73 0.82 0.85 0.87 0.92
0.56 0.57 0.55 0.53 0.54 0.53 0.51 0.49 0.51 0.54 0.57 0.54 0.56 0.57 0.56 0.56 0.55 0.54 0.62 0.71 0.76 0.60 0.50 0.50 0.56 0.67 0.79 0.85 0.88 0.68 0.60 0.64 0.65 0.77 0.95 1.01 0.91 0.91
0.71 0.64 0.53 0.48 0.47 0.47 0.49 0.51 0.51 0.53 0.55 0.60 0.66 0.68 0.69 0.68 0.66 0.63 0.68 0.77 0.76 0.61 0.55 0.55 0.68 0.89 0.89 0.76 0.67 0.60 0.59 0.61 0.65 0.77 0.97 1.20 1.02 0.82
0.66 0.53 0.44 0.42 0.43 0.44 0.48 0.52 0.54 0.52 0.59 0.69 0.75 0.75 0.78 0.80 0.79 0.77 0.76 0.80 0.78 0.69 0.63 0.65 0.84 1.25 1.32 0.80 0.49 0.49 0.65 0.78 0.80 0.84 0.92 1.11 1.13 0.88
0.52 0.46 0.43 0.44 0.46 0.50 0.53 0.56 0.58 0.60 0.66 0.72 0.74 0.77 0.83 0.92 0.92 0.85 0.82 0.84 0.87 0.82 0.76 0.69 0.78 1.14 1.54 1.21 0.84 0.50 0.52 0.83 1.14 1.16 0.91 0.85 0.90 0.87
0.45 0.45 0.46 0.50 0.54 0.58 0.61 0.63 0.67 0.69 0.69 0.74 0.76 0.76 0.83 0.98 0.95 0.81 0.83 0.86 0.94 0.92 0.83 0.64 0.56 0.74 1.20 1.58 1.30 0.66 0.56 0.66 0.96 1.36 1.39 1.33 1.12 0.93
0.48 0.50 0.52 0.56 0.62 0.66 0.69 0.72 0.74 0.72 0.73 0.76 0.76 0.78 0.83 0.95 0.96 0.87 0.87 0.94 0.89 0.84 0.78 0.67 0.66 0.85 1.21 1.53 1.17 0.70 0.62 0.65 0.71 0.81 1.06 1.49 1.91 1.60
0.59 0.61 0.61 0.63 0.67 0.70 0.73 0.74 0.75 0.71 0.70 0.76 0.79 0.81 0.87 0.94 0.88 0.90 0.90 0.93 0.99 0.99 0.96 0.89 0.81 0.83 0.90 1.01 1.05 0.86 0.73 0.67 0.67 0.69 0.72 0.75 0.87 0.98